Knoxville, TN

4:48 AM EDT on August 19, 2017 (GMT -0400)
McGhee Tyson

Weather History for KTYS - September, 2014

Change the Weather History Date:

Tuesday, September 2, 2014

  Actual Average Record
Temperature  
Mean Temperature 80 °F 76 °F  
Max Temperature 89 °F 86 °F 98 °F (1953)
Min Temperature 70 °F 65 °F 48 °F (1987)
Degree Days  
Heating Degree Days 0 0  
Month to date heating degree days 0 0  
Since 1 July heating degree days 0 0  
Cooling Degree Days 15 11  
Month to date cooling degree days 30 22  
Year to date cooling degree days 1229 1303  
Growing Degree Days 30 (Base 50)    
Moisture  
Dew Point 69 °F    
Average Humidity 73    
Maximum Humidity 93    
Minimum Humidity 53    
Precipitation  
Precipitation 0.09 in 0.09 in 1.72 in (1986)
Month to date precipitation 0.09 0.19  
Year to date precipitation 29.35 33.79  
Snow  
Snow 0.00 in 0.00 in - ()
Month to date snowfall 0.0 0.0  
Since 1 July snowfall 0.0 0.0  
Since 1 September snowfall 0.0 0.0  
Snow Depth 0.00 in    
Sea Level Pressure  
Sea Level Pressure 30.03 in    
Wind  
Wind Speed 9 mph (SW)    
Max Wind Speed 21 mph    
Max Gust Speed 26 mph    
Visibility 10 miles    
Events Rain , Thunderstorm    
T = Trace of Precipitation, MM = Missing Value Source: NWS Daily Summary

Daily Weather History Graph

Daily Weather History Graph

Search for Another Location

Airport or City:

Trip Planner

Search our weather history database for the weather conditions in past years. The results will help you decide how hot, cold, wet, or windy it might be!

Date:

Astronomy

Sep. 02, 2014 Rise Set
Actual Time 7:08 AM EDT 8:01 PM EDT
Civil Twilight 6:42 AM EDT 8:27 PM EDT
Nautical Twilight 6:11 AM EDT 8:58 PM EDT
Astronomical Twilight 5:39 AM EDT 9:30 PM EDT
Moon 2:38 PM EDT (9/2) 12:17 AM EDT (9/2)
Length of Visible Light 13h 45m
Length of Day
12h 53m
First Quarter, 52% of the Moon is Illuminated
Sep 2
First Quarter
Sep 8
Full
Sep 15
Last Quarter
Sep 24
New
Oct 1
First Quarter

Hourly Weather History & Observations

Time (EDT) Temp. Heat Index Dew Point Humidity Pressure Visibility Wind Dir Wind Speed Gust Speed Precip Events Conditions
1:53 AM 75.0 °F - 70.0 °F 84% 30.03 in 10.0 mi West 8.1 mph - N/A   Clear
2:53 AM 73.0 °F - 69.1 °F 87% 30.03 in 10.0 mi SSW 3.5 mph - N/A   Clear
3:53 AM 73.9 °F - 69.1 °F 85% 30.04 in 10.0 mi West 4.6 mph - N/A   Clear
4:53 AM 72.0 °F - 69.1 °F 91% 30.04 in 10.0 mi Calm Calm - N/A   Clear
5:53 AM 71.1 °F - 69.1 °F 93% 30.04 in 10.0 mi SW 5.8 mph - N/A   Clear
6:53 AM 71.1 °F - 69.1 °F 93% 30.05 in 10.0 mi WSW 3.5 mph - N/A   Scattered Clouds
7:53 AM 73.0 °F - 70.0 °F 90% 30.07 in 10.0 mi West 3.5 mph - N/A   Mostly Cloudy
8:53 AM 73.9 °F - 71.1 °F 91% 30.07 in 10.0 mi SW 5.8 mph - N/A   Scattered Clouds
9:53 AM 79.0 °F - 72.0 °F 79% 30.06 in 10.0 mi SW 5.8 mph - N/A   Scattered Clouds
10:53 AM 82.0 °F 86.3 °F 71.1 °F 69% 30.06 in 10.0 mi WSW 9.2 mph - N/A   Scattered Clouds
11:53 AM 84.0 °F 89.0 °F 71.1 °F 65% 30.06 in 10.0 mi SW 10.4 mph - N/A   Scattered Clouds
12:53 PM 84.0 °F 89.0 °F 71.1 °F 65% 30.05 in 10.0 mi SSW 11.5 mph - N/A   Scattered Clouds
1:53 PM 88.0 °F 92.9 °F 70.0 °F 55% 30.03 in 10.0 mi SW 15.0 mph - N/A   Scattered Clouds
2:53 PM 88.0 °F 92.9 °F 70.0 °F 55% 29.99 in 10.0 mi SW 13.8 mph 20.7 mph N/A   Scattered Clouds
3:53 PM 88.0 °F 91.4 °F 68.0 °F 51% 29.96 in 10.0 mi WSW 12.7 mph 24.2 mph N/A   Mostly Cloudy
4:53 PM 87.1 °F 91.3 °F 69.1 °F 55% 29.94 in 10.0 mi SW 18.4 mph 23.0 mph N/A   Mostly Cloudy
5:53 PM 88.0 °F 91.4 °F 68.0 °F 51% 29.93 in 10.0 mi WSW 12.7 mph - N/A   Mostly Cloudy
6:53 PM 87.1 °F 91.3 °F 69.1 °F 55% 29.91 in 10.0 mi WSW 9.2 mph - N/A   Scattered Clouds
8:53 PM 79.0 °F - 66.9 °F 66% 29.99 in 10.0 mi NNE 13.8 mph - N/A   Overcast
9:15 PM 77.0 °F - 64.9 °F 66% 30.04 in 10.0 mi NNE 12.7 mph - N/A Thunderstorm Thunderstorm
9:53 PM 75.0 °F - 66.9 °F 76% 30.01 in 10.0 mi NE 12.7 mph - N/A Thunderstorm Thunderstorm
10:53 PM 71.6 °F - 66.2 °F 83% 30.06 in 10.0 mi ENE 6.9 mph - N/A Thunderstorm Overcast
11:20 PM 72.0 °F - 68.0 °F 87% 30.08 in 10.0 mi SSE 6.9 mph - 0.00 in Rain Light Rain
11:25 PM 71.1 °F - 68.0 °F 90% 30.08 in 10.0 mi SSE 8.1 mph - 0.01 in Rain , Thunderstorm Light Thunderstorms and Rain
11:53 PM 70.0 °F - 69.1 °F 97% 30.01 in 7.0 mi ESE 12.7 mph - 0.06 in Rain , Thunderstorm Light Thunderstorms and Rain